Simultaneous Nadir Overpasses (SNOs) Predictions

Prediction of SNOs between NOAA-19 and NPP Satellite Orbit:

Table of predicted SNOs for the next 14.0 days since TLE Epoch: 4/27/2014
Index Date (NOAA-19) Time (NOAA-19) Lat,Lon (NOAA-19) SZA (NOAA-19 ) Date (NPP) Time (NPP) Lat,Lon (NPP) SZA (NPP ) Distance(km) Time Diff (sec)
1 05/08/2014 13:14:50 -81.01, 107.27 112.42 05/08/2014 13:15:58 -81.01, 107.25 112.46 0.32 68
2 05/08/2014 14:05:55 81.01, -85.50 67.57 05/08/2014 14:06:43 81.00, -85.36 67.53 2.37 48
3 05/08/2014 14:56:52 -80.99, 82.38 112.53 05/08/2014 14:57:27 -80.99, 82.25 112.53 2.24 35
4 05/08/2014 15:47:57 80.99,-110.38 67.46 05/08/2014 15:48:12 80.99,-110.36 67.45 0.37 15
5 05/08/2014 16:38:56 -80.99, 56.74 112.53 05/08/2014 16:38:57 -80.99, 56.88 112.55 2.42 1
6 05/08/2014
